Sherbro International Airport

Jump to: basic info | weather | comments

Related pages: nearby airports | nearby navaids | notams | map

Basic information (top)

Codes: BTE GFBN
Location: lon 7.532420, lat -12.518900, elev 14 ft / 4 m msl
Status: medium_airport
Scheduled airline service: yes
Links: Wikipedia Mobile

Weather (top)

Current conditions for Lungi International Airport 77nm (142km) NNW (rec'd 2015/04/17 18:00Z):

GFLL 171800Z 32008KT 7000 HZ SCT013 29/23 Q1009

Airport forecast for Lungi International Airport 77nm (142km) NNW (rec'd 2015/04/17 18:00Z):

TAF GFLL 171600Z 1718/1824 32010KT 9999 TS FEW026CB 
      TEMPO 1720/1804 27010KT 9000 TS/TSRA BKN011 
      BECMG 1805/1807 09008KT 4000 BR BKN010 FEW026CB

Latest comments (top)

No comments yet for Sherbro International Airport

More... (top)

See also NOTAMs and nearby airports and navaids, or visit the Sherbro International Airport page at the main OurAirports website..